WN4MDN Weather Reports


Display with metric or nautical units.
time (UTC)temp
F
wind
direction
speed
MPH
gust
MPH
rain 1hr
in
rain 24hr
in
rain mn
in
humidity
%
barometer
mb
20260831111609 70 11 0.0 1.0 0.00 0.01 0.00 95 1016.1
20260831111034 70 0 0.0 2.0 0.00 0.01 0.00 95 1016.0
20260831110538 70 11 0.0 2.0 0.00 0.01 0.00 95 1016.1
20260831105536 70 0 0.0 1.0 0.00 0.01 0.00 95 1015.9
20260831105035 70 0 0.0 1.0 0.00 0.01 0.00 95 1015.8
20260831104559 70 0 0.0 1.0 0.00 0.01 0.00 95 1015.7
20260831104036 70 11 1.0 1.0 0.00 0.01 0.00 95 1015.8
20260831103535 70 11 0.0 2.0 0.00 0.01 0.00 95 1015.7
20260831103050 70 0 0.0 2.0 0.00 0.01 0.00 95 1015.7
20260831102537 70 11 0.0 2.0 0.00 0.01 0.00 95 1015.8
20260831102034 70 0 0.0 2.0 0.00 0.01 0.00 95 1015.6
20260831101558 70 11 0.0 2.0 0.00 0.01 0.00 95 1015.6
20260831101035 70 11 1.0 2.0 0.00 0.01 0.00 95 1015.6
20260831100538 70 11 0.0 1.0 0.00 0.01 0.00 95 1015.5
20260831100106 70 0 0.0 1.0 0.00 0.01 0.00 95 1015.4
20260831095532 70 0 0.0 1.0 0.00 0.01 0.00 95 1015.4
20260831095036 70 11 0.0 2.0 0.00 0.01 0.00 95 1015.5
20260831094603 70 11 0.0 2.0 0.00 0.01 0.00 95 1015.5
20260831094034 70 11 0.0 2.0 0.00 0.01 0.00 95 1015.4
20260831093534 70 0 0.0 2.0 0.00 0.01 0.00 95 1015.4
20260831093055 70 0 0.0 2.0 0.00 0.01 0.00 95 1015.4
20260831092534 70 11 1.0 1.0 0.00 0.01 0.00 95 1015.4
20260831092035 70 11 1.0 2.0 0.00 0.01 0.00 95 1015.4
20260831091602 70 11 0.0 2.0 0.00 0.01 0.00 95 1015.5
20260831091033 70 11 0.0 2.0 0.00 0.01 0.00 95 1015.6
20260831090535 70 0 0.0 0.0 0.00 0.01 0.00 95 1015.6
20260831090100 70 0 0.0 0.0 0.00 0.01 0.00 95 1015.6
20260831085534 70 0 0.0 0.0 0.00 0.01 0.00 95 1015.7
20260831085035 70 0 0.0 2.0 0.00 0.01 0.00 95 1015.7
20260831084603 70 0 0.0 2.0 0.00 0.01 0.00 95 1015.8
20260831084035 70 11 0.0 3.0 0.00 0.01 0.00 95 1015.9
20260831083535 70 11 2.0 3.0 0.00 0.01 0.00 95 1016.0
20260831083111 70 46 1.0 2.0 0.00 0.01 0.00 95 1016.1
20260831082533 70 98 1.0 1.0 0.00 0.01 0.00 95 1016.1
20260831082035 70 98 0.0 1.0 0.00 0.01 0.00 95 1016.0
20260831081608 70 98 1.0 1.0 0.00 0.01 0.00 95 1016.0
20260831081034 70 98 0.0 0.0 0.00 0.01 0.00 94 1016.0
20260831080534 70 0 0.0 0.0 0.00 0.01 0.00 94 1015.9
20260831080057 70 0 0.0 0.0 0.00 0.01 0.00 94 1015.9
20260831075534 70 0 0.0 0.0 0.00 0.01 0.00 95 1015.8
20260831075032 70 0 0.0 0.0 0.00 0.01 0.00 94 1015.8
20260831074618 70 0 0.0 0.0 0.00 0.01 0.00 94 1015.7
20260831074033 71 0 0.0 0.0 0.00 0.01 0.00 95 1015.7
20260831073534 70 0 0.0 1.0 0.00 0.01 0.00 95 1015.8
20260831073107 71 0 0.0 2.0 0.00 0.01 0.00 95 1015.8
20260831072533 71 0 0.0 2.0 0.00 0.01 0.00 95 1016.0
20260831072034 71 98 0.0 2.0 0.00 0.01 0.00 94 1016.1
20260831071559 71 98 0.0 2.0 0.00 0.01 0.00 94 1016.1
20260831071034 71 98 0.0 2.0 0.00 0.01 0.00 94 1016.1
20260831070536 71 98 0.0 2.0 0.00 0.01 0.00 94 1016.1
20260831065536 71 0 0.0 2.0 0.00 0.01 0.00 94 1016.0
20260831065033 71 0 0.0 2.0 0.00 0.01 0.00 94 1016.0
20260831064601 71 0 0.0 2.0 0.00 0.01 0.00 94 1016.1
20260831064034 71 98 0.0 2.0 0.00 0.01 0.00 94 1016.1
20260831063534 71 98 0.0 2.0 0.00 0.01 0.00 94 1016.1
20260831063058 71 98 1.0 2.0 0.00 0.01 0.00 94 1016.2
20260831062535 71 217 1.0 2.0 0.00 0.01 0.00 94 1016.2
20260831062035 71 217 1.0 2.0 0.00 0.01 0.00 93 1016.2
20260831061600 71 186 0.0 2.0 0.00 0.01 0.00 94 1016.2
20260831061037 72 186 1.0 2.0 0.00 0.01 0.00 95 1016.1
20260831060534 72 185 1.0 2.0 0.00 0.01 0.00 94 1016.3
20260831060100 72 185 0.0 2.0 0.00 0.01 0.00 94 1016.3
20260831055536 72 185 0.0 1.0 0.00 0.01 0.00 94 1016.5
20260831055034 72 185 1.0 2.0 0.00 0.01 0.00 94 1016.7
20260831054600 72 185 1.0 2.0 0.00 0.01 0.00 94 1016.9
20260831054034 72 185 0.0 2.0 0.00 0.01 0.00 94 1016.8
20260831053535 72 185 0.0 2.0 0.00 0.01 0.00 94 1016.9
20260831053058 72 0 0.0 2.0 0.00 0.01 0.00 94 1016.9
20260831052535 72 0 0.0 2.0 0.00 0.01 0.00 94 1016.8
20260831052033 72 185 0.0 2.0 0.00 0.01 0.00 94 1016.8
20260831051553 72 185 1.0 2.0 0.00 0.01 0.00 94 1016.7
20260831051034 72 185 1.0 2.0 0.00 0.01 0.00 94 1016.8
20260831050540 72 0 0.0 3.0 0.00 0.01 0.00 94 1016.8
20260831050100 72 185 1.0 4.0 0.00 0.01 0.00 94 1016.8
20260831045538 72 185 2.0 4.0 0.00 0.01 0.00 94 1016.9
20260831045036 72 170 0.0 2.0 0.00 0.01 0.00 94 1016.9
20260831044613 72 170 2.0 2.0 0.00 0.01 0.00 93 1017.0
20260831044037 72 0 0.0 2.0 0.00 0.01 0.00 93 1017.0
20260831043534 72 93 0.0 2.0 0.00 0.01 0.00 93 1016.9
20260831043110 72 0 0.0 2.0 0.00 0.01 0.00 93 1017.0
20260831042536 72 0 0.0 2.0 0.00 0.01 0.00 93 1017.1
20260831042034 73 0 0.0 2.0 0.00 0.01 0.00 93 1017.1
20260831041601 73 93 1.0 2.0 0.00 0.01 0.00 93 1017.2
20260831041035 73 93 0.0 2.0 0.00 0.01 0.00 93 1017.2
20260831040535 73 0 0.0 2.0 0.00 0.01 0.00 93 1017.2
20260831040101 73 0 0.0 2.0 0.00 0.01 0.00 93 1017.2
20260831035534 73 93 0.0 1.0 0.00 0.01 0.01 93 1017.1
20260831035034 73 93 0.0 1.0 0.00 0.01 0.01 93 1017.1
20260831034556 73 93 1.0 1.0 0.00 0.01 0.01 93 1017.2
20260831034034 73 93 1.0 1.0 0.00 0.01 0.01 93 1017.3
20260831033534 73 93 1.0 2.0 0.00 0.01 0.01 93 1017.2
20260831033101 73 93 0.0 2.0 0.00 0.01 0.01 93 1017.4
20260831032533 73 0 0.0 1.0 0.00 0.01 0.01 93 1017.6
20260831032033 73 93 0.0 2.0 0.00 0.01 0.01 93 1017.5
20260831031552 73 0 0.0 2.0 0.00 0.01 0.01 92 1017.5
20260831031036 73 0 0.0 0.0 0.00 0.01 0.01 92 1017.6
20260831030535 74 0 0.0 0.0 0.00 0.01 0.01 92 1017.6
20260831025534 74 0 0.0 2.0 0.00 0.01 0.01 92 1017.5
20260831025035 74 93 0.0 2.0 0.00 0.01 0.01 92 1017.3
20260831024555 74 93 0.0 2.0 0.00 0.01 0.01 92 1017.3
20260831024035 74 93 1.0 2.0 0.00 0.01 0.01 91 1017.1
20260831023534 74 93 0.0 2.0 0.00 0.01 0.01 91 1017.1
20260831023104 74 93 0.0 2.0 0.00 0.01 0.01 91 1017.2
20260831022537 75 0 0.0 2.0 0.00 0.01 0.01 91 1017.2
20260831022035 75 93 0.0 2.0 0.00 0.01 0.01 91 1017.0
20260831021600 75 93 0.0 2.0 0.00 0.01 0.01 91 1017.1
20260831021035 75 0 0.0 2.0 0.00 0.01 0.01 91 1017.2
20260831020538 75 93 0.0 1.0 0.00 0.01 0.01 91 1017.3
20260831015534 75 93 1.0 2.0 0.00 0.01 0.01 91 1017.4
20260831015037 75 93 1.0 1.0 0.00 0.01 0.01 90 1017.4
20260831014557 75 93 1.0 1.0 0.00 0.01 0.01 90 1017.3
20260831014034 75 93 0.0 2.0 0.00 0.01 0.01 90 1017.5
20260831013534 75 0 0.0 2.0 0.00 0.01 0.01 90 1017.4
20260831013101 76 93 0.0 3.0 0.00 0.01 0.01 90 1017.3
20260831012533 76 93 1.0 3.0 0.00 0.01 0.01 90 1017.3
20260831012036 76 93 2.0 3.0 0.00 0.01 0.01 90 1017.3
20260831011558 76 93 1.0 2.0 0.00 0.01 0.01 90 1017.3
20260831011037 76 93 1.0 2.0 0.00 0.01 0.01 89 1017.3
20260831010535 76 93 2.0 2.0 0.00 0.01 0.01 89 1017.3
20260831010055 76 93 1.0 2.0 0.00 0.01 0.01 89 1017.4
20260831005535 76 85 1.0 3.0 0.00 0.01 0.01 88 1017.3
20260831005034 77 78 2.0 3.0 0.00 0.01 0.01 88 1017.1
20260831004600 77 88 2.0 4.0 0.00 0.01 0.01 88 1017.1
20260831004042 77 75 2.0 6.0 0.00 0.01 0.01 87 1016.9
20260831003534 77 86 2.0 6.0 0.00 0.01 0.01 87 1017.0
20260831003102 77 82 3.0 6.0 0.00 0.01 0.01 87 1017.0
20260831002534 77 80 3.0 6.0 0.00 0.01 0.01 86 1017.0
20260831002034 78 93 3.0 6.0 0.00 0.01 0.01 86 1017.0
20260831001559 78 91 3.0 6.0 0.00 0.01 0.01 85 1016.8
20260831001034 78 86 3.0 7.0 0.00 0.01 0.01 85 1016.6
20260831000534 78 92 3.0 6.0 0.00 0.01 0.01 84 1016.6
20260831000106 78 102 3.0 6.0 0.00 0.01 0.01 83 1016.6
20260830235533 79 87 3.0 4.0 0.00 0.01 0.01 82 1016.5
20260830235034 79 94 3.0 5.0 0.00 0.01 0.01 82 1016.6
20260830234604 79 94 3.0 6.0 0.00 0.01 0.01 82 1016.4
20260830234033 79 101 3.0 7.0 0.00 0.01 0.01 81 1016.3
20260830233539 80 92 3.0 8.0 0.00 0.01 0.01 81 1016.3
20260830233101 80 104 4.0 8.0 0.00 0.01 0.01 80 1016.3
20260830232535 81 94 3.0 8.0 0.00 0.01 0.01 80 1016.3
20260830232034 81 89 4.0 8.0 0.00 0.01 0.01 79 1016.1
20260830231555 82 91 4.0 7.0 0.00 0.01 0.01 79 1015.9
20260830231034 82 108 2.0 6.0 0.00 0.01 0.01 78 1015.9
20260830230533 82 95 3.0 6.0 0.00 0.01 0.01 78 1015.9
20260830230106 83 125 2.0 4.0 0.00 0.01 0.01 78 1015.9
20260830225535 83 99 2.0 7.0 0.00 0.01 0.01 77 1016.0
20260830225034 83 92 4.0 7.0 0.00 0.01 0.01 76 1016.0
20260830224559 84 109 2.0 6.0 0.00 0.01 0.01 76 1016.0
20260830224035 84 77 1.0 3.0 0.00 0.01 0.01 76 1016.1
20260830223537 84 88 1.0 3.0 0.00 0.01 0.01 76 1016.2
20260830223058 84 109 2.0 3.0 0.00 0.01 0.01 75 1016.3
20260830222538 84 101 2.0 4.0 0.00 0.01 0.01 74 1016.2
20260830222038 84 66 2.0 4.0 0.00 0.01 0.01 73 1016.2
20260830221609 85 107 1.0 4.0 0.00 0.01 0.01 73 1016.2
20260830221038 85 94 2.0 4.0 0.00 0.01 0.01 72 1016.2
20260830220534 85 94 3.0 4.0 0.00 0.01 0.01 72 1016.2
20260830220108 85 109 3.0 6.0 0.00 0.01 0.01 73 1016.1
20260830215535 85 79 3.0 6.0 0.00 0.02 0.01 72 1016.2
20260830215034 85 106 3.0 7.0 0.00 0.02 0.01 72 1016.2
20260830214626 85 121 4.0 7.0 0.00 0.02 0.01 72 1016.2
20260830214034 86 126 3.0 6.0 0.00 0.02 0.01 73 1016.2
20260830213535 86 94 3.0 6.0 0.00 0.02 0.01 73 1016.1
20260830213100 86 113 2.0 4.0 0.00 0.02 0.01 71 1016.2
20260830212537 85 130 0.0 4.0 0.00 0.02 0.01 71 1016.2
20260830212034 85 67 1.0 4.0 0.00 0.02 0.01 70 1016.3
20260830211600 85 55 2.0 4.0 0.00 0.02 0.01 70 1016.4
20260830211035 85 48 2.0 5.0 0.00 0.02 0.01 70 1016.3
20260830210535 85 33 2.0 5.0 0.00 0.02 0.01 72 1016.2
20260830210100 85 56 2.0 4.0 0.00 0.02 0.01 70 1016.2
20260830205534 85 63 2.0 3.0 0.00 0.02 0.01 71 1016.2
20260830205034 85 94 2.0 3.0 0.00 0.02 0.01 69 1016.3
20260830204555 86 46 2.0 3.0 0.00 0.02 0.01 68 1016.3
20260830204035 86 63 1.0 5.0 0.00 0.02 0.01 67 1016.2
20260830203534 86 74 3.0 5.0 0.00 0.02 0.01 69 1016.2
20260830203102 87 72 3.0 6.0 0.00 0.02 0.01 66 1016.2
20260830202536 87 167 1.0 11.0 0.00 0.02 0.01 66 1016.3
20260830202034 87 89 3.0 11.0 0.00 0.02 0.01 66 1016.4
20260830201602 86 100 1.0 6.0 0.00 0.02 0.01 69 1016.2
20260830201034 86 132 3.0 7.0 0.00 0.02 0.01 67 1016.3
20260830200535 86 93 3.0 7.0 0.00 0.02 0.01 70 1016.3
20260830200106 85 225 1.0 4.0 0.00 0.02 0.01 71 1016.4
20260830195537 86 83 3.0 6.0 0.00 0.43 0.01 69 1016.6
20260830195034 86 70 2.0 7.0 0.00 0.43 0.01 70 1016.6
20260830194607 86 122 3.0 7.0 0.00 0.43 0.01 70 1016.6
20260830194034 86 73 2.0 5.0 0.00 0.43 0.01 71 1016.7
20260830193535 86 87 1.0 5.0 0.00 0.43 0.01 72 1016.7
20260830193129 86 102 3.0 5.0 0.00 0.43 0.01 70 1016.7
20260830192533 86 128 1.0 6.0 0.00 0.43 0.01 71 1016.7
20260830192034 85 103 3.0 6.0 0.00 0.43 0.01 72 1016.9
20260830191557 85 122 3.0 5.0 0.00 0.43 0.01 73 1016.8
20260830191035 84 105 2.0 4.0 0.00 0.43 0.01 74 1016.8
20260830190534 84 80 2.0 6.0 0.00 0.43 0.01 72 1017.1
20260830190058 84 54 2.0 7.0 0.00 0.43 0.01 75 1017.2
20260830185535 84 83 2.0 7.0 0.00 0.43 0.01 76 1017.2
20260830185034 83 34 3.0 6.0 0.00 0.43 0.01 74 1017.2
20260830184605 83 72 3.0 5.0 0.00 0.43 0.01 75 1017.3
20260830184037 83 76 3.0 9.0 0.00 0.43 0.01 77 1017.3
20260830183534 83 15 5.0 9.0 0.00 0.43 0.01 78 1017.3
20260830183101 83 70 3.0 9.0 0.00 0.43 0.01 77 1017.3
20260830182535 84 87 3.0 6.0 0.00 0.43 0.01 78 1017.3
20260830182035 84 74 3.0 6.0 0.00 0.43 0.01 78 1017.5
20260830181601 83 53 4.0 8.0 0.00 0.43 0.01 80 1017.7
20260830181035 82 32 5.0 8.0 0.00 0.43 0.01 78 1017.7
20260830180535 82 33 4.0 9.0 0.00 0.43 0.01 78 1017.7
20260830180100 82 59 5.0 10.0 0.00 0.43 0.01 79 1017.8
20260830175534 82 60 4.0 10.0 0.00 0.43 0.01 80 1017.9
20260830175035 82 32 3.0 8.0 0.00 0.43 0.01 78 1018.0
20260830174617 81 55 4.0 8.0 0.00 0.43 0.01 78 1018.1
20260830174033 81 61 4.0 7.0 0.00 0.43 0.01 78 1018.2
20260830173535 80 67 3.0 6.0 0.00 0.43 0.01 79 1018.3
20260830173116 80 32 1.0 4.0 0.00 0.43 0.01 79 1018.1
20260830172534 80 47 2.0 4.0 0.01 0.43 0.01 80 1018.1
20260830172034 79 39 2.0 4.0 0.01 0.43 0.01 81 1017.9
20260830171603 79 334 2.0 5.0 0.01 0.43 0.01 82 1018.1
20260830171032 79 331 3.0 7.0 0.01 0.43 0.01 82 1018.1
20260830170534 79 360 4.0 7.0 0.01 0.43 0.01 84 1018.2
20260830170056 78 5 3.0 4.0 0.01 0.43 0.01 85 1018.2
20260830165536 78 291 2.0 4.0 0.01 0.43 0.01 82 1018.1
20260830165034 78 279 2.0 4.0 0.01 0.43 0.01 84 1018.2
20260830164557 77 286 0.0 3.0 0.01 0.43 0.01 87 1018.3
20260830164034 77 286 1.0 3.0 0.01 0.43 0.01 88 1018.6
20260830163534 76 299 1.0 10.0 0.01 0.43 0.01 87 1018.9
20260830163056 76 219 2.0 10.0 0.01 0.43 0.01 87 1018.8
20260830162533 76 158 5.0 15.0 0.00 0.42 0.00 87 1018.9
20260830162034 77 211 4.0 15.0 0.00 0.42 0.00 85 1019.2
20260830161602 78 216 9.0 15.0 0.00 0.42 0.00 82 1019.2
20260830161034 80 196 7.0 17.0 0.00 0.42 0.00 79 1018.8
20260830160533 83 169 6.0 17.0 0.00 0.42 0.00 76 1018.5
20260830155534 83 153 2.0 7.0 0.00 0.42 0.00 81 1018.3
20260830155036 83 124 4.0 7.0 0.00 0.42 0.00 79 1018.3
20260830154557 83 181 3.0 5.0 0.00 0.42 0.00 80 1018.3
20260830154035 83 144 2.0 7.0 0.00 0.42 0.00 79 1018.2
20260830153535 83 136 3.0 7.0 0.00 0.42 0.00 79 1018.2
20260830153112 83 131 2.0 7.0 0.00 0.42 0.00 79 1018.2
20260830152534 83 192 3.0 7.0 0.00 0.42 0.00 78 1018.3
20260830152034 84 188 3.0 7.0 0.00 0.42 0.00 77 1018.4
20260830151601 84 127 3.0 7.0 0.00 0.42 0.00 78 1018.4
20260830151035 84 186 3.0 6.0 0.00 0.42 0.00 78 1018.5
20260830150535 83 195 2.0 6.0 0.00 0.42 0.00 81 1018.3
20260830150100 83 189 2.0 6.0 0.00 0.42 0.00 80 1018.2
20260830145534 83 211 4.0 6.0 0.00 0.42 0.00 78 1018.2
20260830145034 83 213 2.0 5.0 0.00 0.42 0.00 77 1018.2
20260830144611 84 171 3.0 5.0 0.00 0.42 0.00 77 1018.1
20260830144036 84 121 2.0 7.0 0.00 0.42 0.00 79 1018.2
20260830143534 84 134 3.0 8.0 0.00 0.42 0.00 79 1018.2
20260830143053 83 196 4.0 7.0 0.00 0.42 0.00 79 1018.2
20260830142534 83 207 2.0 5.0 0.00 0.42 0.00 81 1018.4
20260830142037 82 213 3.0 6.0 0.00 0.42 0.00 83 1018.4
20260830141559 83 231 3.0 6.0 0.00 0.42 0.00 84 1018.4
20260830141033 83 200 1.0 4.0 0.00 0.42 0.00 84 1018.4
20260830140538 83 158 2.0 6.0 0.00 0.42 0.00 85 1018.3
20260830140057 82 132 3.0 6.0 0.00 0.42 0.00 84 1018.4
20260830135532 82 142 1.0 4.0 0.00 0.42 0.00 85 1018.4
20260830135037 81 60 0.0 3.0 0.00 0.42 0.00 88 1018.4
20260830134609 81 62 1.0 4.0 0.00 0.42 0.00 87 1018.4
20260830134033 80 15 2.0 4.0 0.00 0.42 0.00 88 1018.3
20260830133533 80 360 2.0 3.0 0.00 0.42 0.00 90 1018.3
20260830133110 80 351 1.0 3.0 0.00 0.42 0.00 91 1018.3
20260830132534 79 347 1.0 2.0 0.00 0.42 0.00 92 1018.2
20260830132034 79 360 1.0 2.0 0.00 0.42 0.00 92 1018.0
20260830131601 78 360 1.0 2.0 0.00 0.42 0.00 93 1018.1
20260830131035 78 35 1.0 2.0 0.00 0.42 0.00 95 1018.0
20260830130534 77 40 1.0 2.0 0.00 0.42 0.00 96 1017.9
20260830130056 76 67 1.0 3.0 0.00 0.42 0.00 96 1017.9
20260830125533 76 49 1.0 3.0 0.00 0.42 0.00 96 1017.9
20260830125034 75 49 2.0 4.0 0.00 0.42 0.00 96 1017.8
20260830124601 75 360 2.0 4.0 0.00 0.42 0.00 96 1017.8
20260830124031 75 347 2.0 4.0 0.00 0.42 0.00 96 1017.8
20260830123535 74 348 1.0 4.0 0.00 0.42 0.00 96 1017.8
20260830123109 73 360 2.0 3.0 0.00 0.42 0.00 96 1017.8
20260830122534 73 360 0.0 2.0 0.00 0.42 0.00 96 1017.7
20260830122036 72 360 0.0 2.0 0.00 0.42 0.00 96 1017.6
20260830121601 72 360 0.0 2.0 0.00 0.42 0.00 96 1017.6
20260830121034 71 0 0.0 2.0 0.00 0.42 0.00 96 1017.6
20260830120534 71 0 0.0 0.0 0.00 0.42 0.00 96 1017.6
20260830120104 71 0 0.0 0.0 0.00 0.42 0.00 96 1017.7
20260830115534 71 0 0.0 1.0 0.00 0.42 0.00 96 1017.6
20260830115034 71 0 0.0 1.0 0.00 0.42 0.00 96 1017.7
20260830114611 70 0 0.0 0.0 0.00 0.42 0.00 96 1017.7
20260830114034 70 0 0.0 1.0 0.00 0.42 0.00 96 1017.4
20260830113534 70 0 0.0 2.0 0.00 0.42 0.00 96 1017.4
20260830113055 70 360 0.0 2.0 0.00 0.42 0.00 96 1017.3
20260830112535 70 360 0.0 1.0 0.00 0.42 0.00 96 1017.2
20260830112034 70 360 1.0 1.0 0.00 0.42 0.00 96 1017.0